Location: Newark
(25.6108°S, 54.5803°W)
Time: 12:21:13
(UTC+00:00)

Courier 1B Rocket - Pass Details

Date: 03 November 2020
Orbit: 920 x 1202 km, 28.2° (Epoch: 01 December)

Event Time Altitude Azimuth Distance (km) Brightness Sun altitude
Rises 05:17:21 0° 317° (NW) 4,083 - -40.4°
Reaches altitude 10° 05:20:29 10° 325° (NW) 3,126 - -40.0°
Maximum altitude 05:27:24 35° 27° (NNE) 1,832 - -39.0°
Exits shadow 05:30:35 25° 68° (ENE) 2,162 6.9 -38.5°
Drops below altitude 10° 05:34:10 10° 90° (E) 3,064 8.0 -38.0°
Sets 05:37:11 0° 98° (E) 3,992 8.8 -37.6°
